This is the latest recevied weather packets stored in our database for station/object KA1AL. If no packets are shown the sender has not sent any weather packets the latest 10 day(s).
| Time | Temp. | Humidity | Pressure | Rain* | Wind** | Luminosity | Snow |
|---|---|---|---|---|---|---|---|
| 1778110144 | 11.67° C | 99% | 1004.2 hPa | 0 mm | - | 0 W/m² | - |
| 1778109840 | 11.67° C | 99% | 1004.2 hPa | 0 mm | - | 0 W/m² | - |
| 1778109536 | 11.67° C | 99% | 1004.2 hPa | 0 mm | - | 0 W/m² | - |
| 1778109234 | 11.67° C | 99% | 1004 hPa | 0 mm | - | 1 W/m² | - |
| 1778108931 | 12.22° C | 99% | 1004.4 hPa | 1.27 mm | - | 2 W/m² | - |
| 1778108628 | 12.22° C | 99% | 1004.2 hPa | 1.27 mm | - | 4 W/m² | - |
| 1778108324 | 12.22° C | 99% | 1004.2 hPa | 0 mm | - | 4 W/m² | - |
| 1778108022 | 12.22° C | 99% | 1004.1 hPa | 0 mm | - | 3 W/m² | - |
| 1778107718 | 12.22° C | 99% | 1004.5 hPa | 0 mm | - | 6 W/m² | - |
| 1778107416 | 12.22° C | 99% | 1004.8 hPa | 1.78 mm | - | 15 W/m² | - |
| 1778107112 | 12.22° C | 99% | 1004.8 hPa | 3.05 mm | - | 14 W/m² | - |
| 1778106807 | 12.22° C | 99% | 1004.5 hPa | 3.05 mm | - | 16 W/m² | - |
| 1778106505 | 12.22° C | 99% | 1004.9 hPa | 3.56 mm | - | 14 W/m² | - |
| 1778106200 | 11.67° C | 99% | 1004.8 hPa | 1.78 mm | - | 11 W/m² | - |
| 1778105899 | 12.22° C | 99% | 1004.8 hPa | 0 mm | - | 6 W/m² | - |
| 1778105596 | 12.22° C | 99% | 1004.9 hPa | 1.27 mm | - | 6 W/m² | - |
| 1778105294 | 12.22° C | 99% | 1004.9 hPa | 3.05 mm | - | 6 W/m² | - |
| 1778104994 | 12.22° C | 99% | 1004.8 hPa | 3.05 mm | - | 6 W/m² | - |
| 1778104690 | 12.22° C | 99% | 1004.8 hPa | 7.11 mm | - | 7 W/m² | - |
| 1778104387 | 12.22° C | 99% | 1004.8 hPa | 10.67 mm | - | 15 W/m² | - |
| 1778104083 | 12.22° C | 99% | 1004.8 hPa | 6.1 mm | - | 20 W/m² | - |
| 1778103780 | 12.22° C | 99% | 1004.4 hPa | 4.83 mm | - | 11 W/m² | - |
| 1778103478 | 12.22° C | 99% | 1004.4 hPa | 3.56 mm | - | 12 W/m² | - |
| 1778103174 | 11.67° C | 99% | 1004.2 hPa | 1.78 mm | - | 21 W/m² | - |
| 1778102872 | 11.67° C | 99% | 1004.5 hPa | 0 mm | - | 22 W/m² | - |
* Rain latest hour (hover to see other rain measurements)
** Current wind speed in m/s (hover to see current wind gust speed)